Location: El Boquerón
(3.1908°N, 75.6036°W)
Time: 22:53:42
(UTC+00:00)

Cosmos 2263 Rocket - Pass Details

Date: 11 December 2025
Orbit: 823 x 847 km, 71.0° (Epoch: 10 April)

Event Time Altitude Azimuth Distance (km) Brightness Sun altitude
Rises 23:34:51 0° 9° (N) 3,390 5.0 -10.2°
Reaches altitude 10° 23:37:51 10° 25° (NNE) 2,459 4.2 -10.9°
Maximum altitude 23:42:05 22° 74° (ENE) 1,778 3.3 -11.8°
Drops below altitude 10° 23:46:19 10° 122° (ESE) 2,464 4.3 -12.8°
Sets 23:49:19 0° 137° (SE) 3,400 5.1 -13.5°
